www.pogodaiklimat.ru

Погода и климат >> Архив погоды >> Гана >> Акюс


ПОГОДА в Акюсе

  • Прогноз погоды в Акюсе
  • Монитор погоды в Акюсе

АРХИВ ПОГОДЫ в Акюсе

Время (UTC), дата Ветер
(напр.,м/с)
 
Видим.   Явления Облачность Т
(С)
Тd
(С)
f
(%)
Тe
(С)
Тes
(С)
Комфортность P
(гПа)
Po
(гПа)
Тmin
(С)
Tmax
(С)
R
(мм)
R24
(мм)
S
(см)
21 11.07 ЮЗ 1 12 км в посл. час гроза 9/9 360 м
[Sc]
+26.0 +24.6 92 +37 +37 очень
душно
1013.5 1011.3
00 12.07 ЮЗ 1 12 км {гроза} 8/0
[Cs]
+25.0 +23.6 92 +34 +34 очень
душно
1013.3 1011.1
03 12.07 ЮЗ 1 12 км 9/9 360 м
[Sc]
+24.0 +23.3 96 +32 +32 очень
душно
1013.1 1010.9
06 12.07 штиль 0 12 км 9/9 360 м
[Sc]
+24.5 +23.8 96 +33 +33 очень
душно
1014.4 1012.2 +24.0
12 12.07 ЮЗ 1 14 км 9/6 360 м
[Cu Sc Ac trans]
+29.0 +23.8 74 +40 +45 очень
душно
1014.5 1012.3
15 12.07 ЮВ 1 14 км 8/6 360 м
[Cu Sc Ac trans]
+30.5 +24.4 70 +43 +46 опасность
перегрева
1011.4 1009.2
18 12.07 ЮЗ 1 14 км 8/4 360 м
[Cu Sc Ac trans Cs]
+27.2 +24.2 84 +38 +38 очень
душно
1012.5 1010.3 +31.0
09 13.07 Ю 1 10 км 9/1 360 м
[Sc Ac trans Cs]
+27.8 +23.7 78 +38 +44 очень
душно
1016.3 1014.1
15 13.07 ЮЗ 2 14 км 9/1 360 м
[Cu Sc Ac trans Cs]
+30.7 +24.2 68 +43 +48 опасность
перегрева
1012.8 1010.6
18 13.07 ЮВ 2 14 км 9/0
[Cs]
+27.8 +23.4 77 +38 +38 очень
душно
1012.6 1010.4 +30.7
21 13.07 З 1 12 км 1/0
[Ac trans]
+25.0 +23.6 92 +34 +34 очень
душно
1014.8 1012.6
00 14.07 штиль 0 12 км 1/0
[Ac trans]
+23.5 +22.8 96 +31 +31 очень
душно
1014.9 1012.7
03 14.07 штиль 0 12 км 4/0
[Ac trans]
+22.5 +21.9 96 +30 +30 очень
душно
1013.6 1011.4
06 14.07 штиль 0 8000 м 9/0
[Cs]
+22.0 +21.3 96 +29 +29 очень
душно
1014.6 1012.4
21 14.07 ЮВ 1 12 км 9/0
[Cs]
+25.1 +23.3 90 +34 +34 очень
душно
1013.2 1011.0
00 15.07 ЮЗ 1 12 км 9/0
[Ac trans Cs]
+24.4 +23.2 93 +33 +33 очень
душно
1012.7 1010.5
03 15.07 штиль 0 12 км 9/0
[Cs]
+24.0 +22.6 92 +31 +31 очень
душно
1012.1 1009.9
06 15.07 штиль 0 14 км 9/9 360 м
[Sc]
+23.8 +22.5 92 +31 +31 очень
душно
1012.9 1010.7 +23.8
09 15.07 ЮЗ 1 14 км 9/8 400 м
[Sc Ac trans]
+26.2 +22.6 81 +35 +36 очень
душно
1014.2 1012.0
12 15.07 СЗ 2 14 км 9/6 400 м
[Sc Ac trans]
+29.9 +23.3 68 +40 +45 очень
душно
1012.8 1010.6
15 15.07 ЮВ 2 14 км 9/5 360 м
[Cu Sc Ac trans Cs]
+31.0 +24.2 67 +43 +46 опасность
перегрева
1009.6 1007.4
12 16.07 ЮЗ 1 14 км 8/6 450 м
[Cu med, cong Ac trans]
+31.6 +23.3 61 +42 +49 опасность
перегрева
1013.2 1011.0
15 16.07 СВ 1 9000 м слаб. дождь 9/5 360 м
[Cb cap Cs]
+27.0 +24.3 85 +38 +43 очень
душно
1011.3 1009.1
18 16.07 ЮЗ 1 12 км {дождь} 9/4 360 м
[Sc Cs]
+28.0 +23.9 78 +39 +39 очень
душно
1011.9 1009.7 +32.0 1
21 16.07 ЮЗ 1 12 км 9/0
[Ac trans Cs]
+25.5 +23.4 88 +34 +34 очень
душно
1013.8 1011.6
00 17.07 штиль 0 12 км 9/0
[Ac trans Cs]
+25.0 +23.6 92 +34 +34 очень
душно
1014.7 1012.5
03 17.07 штиль 0 12 км 9/0
[Ac trans Cs]
+23.4 +22.8 96 +33 +33 очень
душно
1013.4 1011.2
06 17.07 ЮВ 1 12 км 9/1 360 м
[Sc Ac trans Cs]
+23.2 +22.9 98 +32 +32 очень
душно
1014.5 1012.3 +23.2
12 17.07 ЮВ 2 14 км 8/8 360 м
[Cu Sc Ac trans]
+30.8 +24.3 68 +43 +47 опасность
перегрева
1015.1 1012.9
15 17.07 СВ 1 16 км 6/6 450 м
[Cu med, cong]
+33.2 +24.9 62 +47 +52 опасность
перегрева
1012.1 1010.0
18 17.07 ЮЗ 2 14 км 5/4 360 м
[Cu Sc]
+29.0 +23.5 72 +39 +39 очень
душно
1011.8 1009.6 +33.2
21 17.07 Ю 1 12 км 3/3 360 м
[Sc]
+26.0 +23.2 85 +35 +35 очень
душно
1013.8 1011.6
00 18.07 ЮЗ 1 12 км 1/1 360 м
[Sc]
+24.5 +22.9 91 +32 +32 очень
душно
1013.7 1011.5
09 18.07 ЮЗ 2 14 км 3/3 450 м
[Cu hum Ci sp]
+28.9 +23.3 72 +39 +47 очень
душно
1014.3 1012.1
12 18.07 ЮЗ 1 14 км 6/6 450 м
[Cu med, cong]
+31.5 +24.1 65 +43 +53 опасность
перегрева
1013.9 1011.7
15 18.07 ЮЗ 2 14 км 5/5 450 м
[Cu med, cong]
+32.2 +24.5 64 +45 +51 опасность
перегрева
1010.9 1008.8
18 18.07 ЮЗ 3 14 км 9/5 360 м
[Cb cap Cs]
+29.0 +24.5 77 +41 +41 опасность
перегрева
1011.4 1009.2 +32.2

 

Местоположение метеостанции Акюс (Гана): широта 6.10 долгота 0.12 высота над уровнем моря 19 м.

В архиве по умолчанию представлена погода в Акюсе за последнюю неделю. Архивные данные за месяц целиком и за предыдущие месяцы, начиная с января 2011 года, Вы можете получить, выбрав интересующий диапазон дат из раскрывающегося списка и нажав кнопку "Ввод!".


*Определитесь, кто Вы:
робот инопланетянин человек

Внимание! Время в таблицах - всемирное. Для получения местного времени необходимо прибавить поправку, которая равна 1 ч.

Смотрите также архив погоды в соседних городах и на ближайших метеорологических станциях:

Погода в Кофоридуа (Гана) (41 км)
Погода в Тема (Гана) (55 км)
Погода в Аккра (Гана) (64 км)
Погода в Ада (Гана) (67 км)
Погода в Хо (Гана) (68 км)
Погода в Акатзи (Гана) (75 км)
Погода в Абетифи (Гана) (115 км)
Погода в Аким Ода (Гана) (123 км)
Погода в Ломе (Того) (125 км)
Погода в Таблигбо (Того) (162 км)

Пояснения к столбцам:

Ветер - указаны скорость ветра в м/с - средняя за 10 мин, порывы в срок и между сроками (в фигурных скобках) и направление, откуда дует ветер: С - северный, СВ - северо-восточный, В - восточный, ЮВ - юго-восточный, Ю - южный, ЮЗ - юго-западный, З - западный, СЗ - северо-западный.
Видимость - горизонтальная дальность видимости в метрах или километрах. При видимости от 1 до 10 км при отсутствии осадков обычно наблюдается дымка, при ухудшении видимости до 1 км и менее - туман. В сухую погоду видимость может ухудшаться дымом, пылью или мглою.
Явления - указаны атмосферные явления, наблюдавшиеся в срок или в последний час перед сроком; фигурными скобками обозначены явления, наблюдавшиеся между сроками (за 1-3 часа до срока); квадратными скобками обозначены град или гололедные отложения с указанием их диаметра в мм.
Облачность - указаны через наклонную черту общая и нижняя облачность в баллах и высота нижней границы облаков в метрах; квадратными скобками обозначены формы облаков: Ci - перистые, Cs - перисто-слоистые, Cc - перисто-кучевые, Ac - высококучевые, As - высокослоистые, Sc - слоисто-кучевые, Ns - слоисто-дождевые, Cu - кучевые, Cb - кучево-дождевые. Подробнее классификацию облаков см. в Атласе облаков (PDF).
T - Температура воздуха - температура, измеренная на высоте 2 м над землей.
Td - Температура точки росы - температура, при понижении до которой содержащийся в воздухе водяной пар достигнет насыщения.
f - Относительная влажность воздуха - влажноcть воздуха, измеренная на высоте 2 м над землей.
Te - Эффективная температура - температура, которую ощущает одетый по сезону человек в тени. Характеристика душности погоды. При расчете учитывается влияние влажности воздуха и скорости ветра на теплоощущения человека.
Tes - Эффективная температура на солнце - температура, которую ощущает человек, с поправкой на солнечный нагрев. Характеристика знойности погоды. Зависит от высоты солнца над горизонтом, облачности и скорости ветра. Ночью, в пасмурную погоду, а также при ветре 12 м/с и более поправка равна нулю.
P - Атмосферное давление - приведенное к уровню моря атмосферное давление.
Po - Атмосферное давление - измеренное на уровне метеостанции атмосферное давление.
Tmin - Минимальная температура - минимум температуры воздуха на высоте 2 м над землей.
Tmax - Максимальная температура - максимум температуры воздуха на высоте 2 м над землей.
R - Количество осадков - Количество выпавших осадков за период времени, мм. При наведении курсора мыши на число - период времени, за который выпало указанное количество осадков.
R24 - Количество осадков - Количество выпавших осадков за 24 часа, мм.
S - Снежный покров - Высота снежного покрова, см. При наведении курсора мыши на число - состояние снежного покрова и степень покрытия местности в баллах.